Location: Tauranga
(37.6860°S, 176.1670°E)
Time: 03:59:39
(UTC+13:00)

Cosmos 2315 Rocket - Pass Details

Date: 24 January 2019
Orbit: 966 x 1002 km, 82.9° (Epoch: 16 October)

Event Time Altitude Azimuth Distance (km) Brightness Sun altitude
Rises 21:57:02 0° 188° (S) 3,743 7.8 -14.6°
Reaches altitude 10° 21:59:35 10° 188° (S) 2,783 7.1 -15.0°
Maximum altitude 22:06:00 83° 275° (W) 1,003 4.1 -16.0°
Enters shadow 22:11:48 12° 2° (N) 2,558 5.8 -16.9°
